Regional Weather Roundup
Issued by NWS Northern Indiana

Home | Current Version | Previous Version | Graphics & Text | Print | Product List | Glossary On
Versions: 1 2 3 4 5 6 7 8 9 10 11 12 13 14 15 16 17 18 19 20 21 22 23 24 25 26 27 28 29 30 31 32 33 34 35 36 37 38 39 40 41 42 43 44 45 46 47 48 49 50
000
ASUS43 KIWX 300000
RWRIWX

KIWX WEATHER ROUNDUP
NATIONAL WEATHER SERVICE NORTHERN INDIANA
800 PM EDT FRI AUG 29 2014

NOTE: "FAIR" INDICATES FEW OR NO CLOUDS BELOW 12,000 FEET WITH NO
SIGNIFICANT WEATHER AND/OR OBSTRUCTIONS TO VISIBILITY.

* THESE STATIONS ARE NOT UNDER NWS QUALITY CONTROL. THEY ALSO MAY NOT
  REPORT WEATHER SUCH AS PRECIPITATION OR FOG.

INZ001>027-300100-
NORTHERN INDIANA

CITY           SKY/WX    TMP DP  RH WIND       PRES   REMARKS
GARY*          MOCLDY    79  66  65 SE13      29.91S
VALPARAISO     MOCLDY    73  73 100 E5        29.93F
6HR MIN TEMP:  73; 6HR MAX TEMP:  82; 6HR PCP:  0.48;

KNOX*          MOCLDY    78  71  77 SE8       29.93S
6HR MIN TEMP:  41; 6HR MAX TEMP:  88;

SOUTH BEND     CLOUDY    77  72  84 SE5       29.95S
6HR MIN TEMP:  75; 6HR MAX TEMP:  81; 6HR PCP:  0.08;

ELKHART*       MOCLDY    75  73  94 SE5       29.96S
GOSHEN         MOCLDY    79  70  74 SE10      29.96S
6HR MIN TEMP:  79; 6HR MAX TEMP:  84;

MONTICELLO*    MOCLDY    78  73  83 CALM      29.93F
6HR MIN TEMP:  76; 6HR MAX TEMP:  85;

ANGOLA*        CLEAR     77  70  78 S7        30.00S
FORT WAYNE     PTCLDY    77  68  73 SE8       29.99F
6HR MIN TEMP:  77; 6HR MAX TEMP:  82;

PERU/GRISSOM   CLEAR     78  76  92 SE6       29.95S
6HR MIN TEMP:  78; 6HR MAX TEMP:  84;


$$
INZ028>050-300100-
CENTRAL INDIANA

CITY           SKY/WX    TMP DP  RH WIND       PRES   REMARKS
LAFAYETTE      CLOUDY    78  70  76 SE3       29.92F
6HR MIN TEMP:  77; 6HR MAX TEMP:  86; 6HR PCP: TRACE;

KOKOMO*        CLEAR     79  72  78 SE9       29.96F
6HR MIN TEMP:  77; 6HR MAX TEMP:  82;

MUNCIE*        CLEAR     78  68  71 SE7       29.99S
6HR MIN TEMP:  78; 6HR MAX TEMP:  84;

INDIANAPOLIS   MOCLDY    82  71  69 S8        29.95R
6HR MIN TEMP:  79; 6HR MAX TEMP:  87;


$$
MIZ043>046-050>051-056>058-064>065-071>073-077>080-300100-
SOUTHWEST LOWER MICHIGAN

CITY           SKY/WX    TMP DP  RH WIND       PRES   REMARKS
BATTLE CREEK   CLOUDY    77  68  73 S10       29.98F
6HR MIN TEMP:  75; 6HR MAX TEMP:  82; 6HR PCP: TRACE;

BENTON HARBOR  CLOUDY    76  71  85 SE8       29.94R
6HR MIN TEMP:  75; 6HR MAX TEMP:  82; 6HR PCP: TRACE;

COLDWATER*     MOCLDY    78  67  69 SE6       29.99S
6HR MIN TEMP:  78; 6HR MAX TEMP:  84;

HILLSDALE*     PTCLDY    78  66  66 SE6       30.01S
6HR MIN TEMP:  78; 6HR MAX TEMP:  83;

HOLLAND        CLOUDY    77  71  82 SE9       29.93F
6HR MIN TEMP:  76; 6HR MAX TEMP:  79;

GRAND RAPIDS   CLOUDY    73  71  93 SE7       29.95S
6HR MIN TEMP:  71; 6HR MAX TEMP:  75; 6HR PCP:  0.06;

KALAMAZOO      MOCLDY    76  69  79 S5        29.97S
6HR MIN TEMP:  75; 6HR MAX TEMP:  81; 6HR PCP:  0.01;

STURGIS*       MOCLDY    77  70  78 SE8       29.97S
THREE RIVERS*  FAIR      76  71  86 SE5       29.97S

$$
OHZ001>008-015>018-024>025-300100-
NORTHWEST OHIO

CITY           SKY/WX    TMP DP  RH WIND       PRES   REMARKS
DEFIANCE       CLEAR     81  65  58 S6        30.01S
6HR MIN TEMP:  81; 6HR MAX TEMP:  84;

FINDLAY        CLEAR     79  63  57 SE7       30.02F
6HR MIN TEMP:  79; 6HR MAX TEMP:  83;

TOLEDO EXPRESS CLEAR     78  63  59 SE3       30.01F
6HR MIN TEMP:  78; 6HR MAX TEMP:  84;

TOLEDO METCALF CLEAR     74  63  68 E8        30.03S
6HR MIN TEMP:  74; 6HR MAX TEMP:  83;

LIMA           CLEAR     78  66  66 E6        30.03S
6HR MIN TEMP:  78; 6HR MAX TEMP:  84;


$$
&&


USA.gov is the U.S. government's official web portal to all federal, state and local government web resources and services.